MST,Max TemperatureF,Mean TemperatureF,Min TemperatureF,Max Dew PointF,MeanDew PointF,Min DewpointF,Max Humidity, Mean Humidity, Min Humidity, Max Sea Level PressureIn, Mean Sea Level PressureIn, Min Sea Level PressureIn, Max VisibilityMiles, Mean VisibilityMiles, Min VisibilityMiles, Max Wind SpeedMPH, Mean Wind SpeedMPH, Max Gust SpeedMPH,PrecipitationIn, CloudCover, Events, WindDirDegrees
2012-2-1,46,38,30,25,21,19,64,49,36,30.25,30.13,29.99,10,10,8,7,1,,0.00,2,,291
2012-2-2,50,44,37,30,27,21,70,53,40,29.98,29.92,29.88,10,10,10,12,3,,0.00,7,,309
2012-2-3,52,46,37,23,20,19,51,39,27,30.16,30.06,29.95,10,10,9,9,4,,0.00,4,,10
2012-2-4,51,44,36,24,22,20,57,43,31,30.23,30.17,30.12,10,10,7,15,3,,0.00,5,,34
2012-2-5,48,42,35,27,24,21,62,50,41,30.22,30.15,30.10,10,9,2,13,2,,0.00,6,,46
2012-2-6,48,40,32,26,22,19,70,52,31,30.16,30.11,30.07,10,10,6,6,1,,0.00,0,,18
2012-2-7,48,39,30,22,20,18,60,47,32,30.26,30.20,30.14,10,8,2,9,2,,0.00,0,,344
2012-2-8,53,46,39,23,21,18,49,39,25,30.26,30.19,30.13,10,9,5,7,1,,0.00,2,,13
2012-2-9,57,46,36,26,23,21,57,41,25,30.26,30.21,30.16,10,9,6,7,2,,0.00,2,,240
2012-2-10,60,50,39,27,26,24,58,42,27,30.23,30.13,30.04,10,10,4,6,2,,0.00,0,,9
2012-2-11,59,49,39,28,26,24,58,43,28,30.07,29.90,29.74,10,9,5,7,2,,0.00,0,,8
2012-2-12,53,50,46,33,29,26,59,45,38,29.77,29.71,29.66,10,10,10,12,4,,0.00,6,,257
2012-2-13,51,45,39,32,30,26,70,54,43,29.82,29.74,29.65,10,10,10,13,2,24,0.00,6,Rain,349
2012-2-14,46,38,30,32,29,23,89,74,43,29.89,29.80,29.69,10,6,0,9,4,16,0.25,5,Fog-Snow,269
2012-2-15,46,41,36,31,27,24,73,60,42,30.02,29.94,29.89,10,10,4,10,3,16,0.00,5,,204
2012-2-16,51,43,35,28,25,21,76,54,31,30.20,30.12,30.04,10,9,5,10,2,,0.00,1,,48
2012-2-17,52,41,30,23,20,13,69,45,21,30.19,30.11,30.03,10,10,8,6,3,,0.00,0,,171
2012-2-18,53,43,33,22,20,19,59,42,26,30.13,30.00,29.85,10,10,9,6,2,,0.00,0,,26
2012-2-19,46,40,33,30,20,4,62,42,26,30.00,29.79,29.70,10,10,10,16,6,30,0.00,4,,282
2012-2-20,46,36,26,14,10,7,53,36,22,30.17,30.10,30.01,10,10,7,8,4,,0.00,0,,78
2012-2-21,54,42,30,22,15,12,51,35,19,30.22,30.15,30.07,10,9,6,6,3,,0.00,0,,96
2012-2-22,61,49,37,28,25,21,62,40,27,30.17,30.01,29.79,10,10,7,8,2,,0.00,0,,96
2012-2-23,60,50,39,28,17,0,48,30,12,30.10,29.87,29.73,10,10,8,16,5,29,0.00,0,,308
2012-2-24,51,42,32,11,7,4,40,26,15,30.30,30.21,30.11,10,10,8,8,1,,0.00,0,,23
2012-2-25,64,47,30,13,5,-6,42,23,6,30.16,29.97,29.84,10,10,6,14,3,30,0.00,0,,275
2012-2-26,48,42,37,9,4,-4,29,20,12,30.05,29.98,29.87,10,10,5,12,4,,0.00,1,,360
2012-2-27,57,44,30,30,13,5,54,30,20,29.95,29.77,29.59,10,10,5,14,3,24,0.00,3,,176
2012-2-28,48,40,33,34,27,19,93,66,32,30.14,29.85,29.61,10,8,0,17,10,26,0.14,6,Fog-Rain-Snow,217
2012-2-29,50,41,32,25,23,21,70,50,32,30.16,30.04,29.88,10,10,9,8,4,,0.00,1,,160